Location: *
(45.0500°N, 12.0500°E)
Time: 09:21:56
(UTC+00:00)

SPOT 1/Viking Rocket - Pass Details

Date: 09 April 2020
Orbit: 776 x 795 km, 98.5° (Epoch: 24 May)

Event Time Altitude Azimuth Distance (km) Brightness Sun altitude
Exits shadow 19:50:06 35° 93° (E) 1,258 4.2 -20.1°
Maximum altitude 19:51:06 39° 67° (ENE) 1,185 4.2 -20.3°
Drops below altitude 10° 19:55:55 10° 1° (N) 2,375 6.5 -21.0°
Sets 19:58:23 0° 354° (N) 3,309 7.4 -21.3°
